Home   Weather   Almería   Past weeks

Flag for Spain Past Weather in Almería, Spain — Yesterday and Last 2 Weeks

Now
80 °F

Warm.


Feels Like: 81 °F
Forecast: 69 / 83 °F
Wind: 26 mph from Southwest

Location: Almeria / Aeropuerto

Current Time: Jun 28, 2017 at 2:18:52 pm

Latest Report: Jun 28, 2017 at 1:00 pm


Visibility: N/A

Pressure: 29.85 "Hg

Humidity: 53%

Dew Point: 61 °F

Location of AlmeríaLocation

Past Weather in Almería — Graph

°F

Almería Temperature Yesterday

Maximum temperature yesterday: 87 °F (at 4:00 pm)
Minimum temperature yesterday: 73 °F (at 11:00 pm)
Average temperature yesterday: 79 °F

High & Low Weather Summary for the Past Weeks

 TemperatureHumidityPressure
High100 °F (Jun 25, 2:00 pm)90% (Jun 16, 7:00 am)30.16 "Hg (Jun 16, 7:00 am)
Low68 °F (Jun 28, 6:00 am)16% (Jun 25, 3:00 pm)29.71 "Hg (Jun 27, 8:00 pm)
Average81 °F61%29.97 "Hg
* Reported Jun 13 12:00 pm — Jun 28 12:00 pm, Almería. Weather by CustomWeather, © 2017

Note: Actual official high and low records may vary slightly from our data, if they occured in-between our weather recording intervals... More about our weather records

Advertising

Almería Weather History for the Previous 24 Hours

Scroll right to see more
 ConditionsComfort  
Time TempWeatherWind HumidityBarometerVisibility
12:00 pm
Wed, Jun 28
79 °FWarm.24 mph60%29.85 "HgN/A
11:00 am77 °FSunny.24 mph61%29.86 "Hg31 mi
10:00 am78 °FWarm.17 mph59%29.86 "HgN/A
9:00 am76 °FMild.2 mph72%29.86 "HgN/A
8:00 am71 °FSunny.2 mph84%29.85 "Hg19 mi
7:00 am68 °FMild.5 mph88%29.85 "HgN/A
6:00 am68 °FMild.1 mph88%29.85 "HgN/A
5:00 am69 °FClear.5 mph87%29.84 "Hg16 mi
4:00 am69 °FMild.2 mph86%29.84 "HgN/A
3:00 am70 °FMild.7 mph85%29.85 "HgN/A
2:00 am71 °FMild.6 mph83%29.86 "HgN/A
1:00 am71 °FMild.10 mph82%29.86 "HgN/A
12:00 am72 °FMild.15 mph79%29.85 "HgN/A
11:00 pm
Tue, Jun 27
73 °FMild.18 mph78%29.82 "HgN/A
10:00 pm74 °FMild.17 mph71%29.79 "HgN/A
9:00 pm77 °FWarm.23 mph66%29.74 "HgN/A
8:00 pm80 °FScattered clouds.31 mph64%29.71 "Hg19 mi
7:00 pm79 °FWarm.31 mph66%29.72 "HgN/A
6:00 pm83 °FWarm.31 mph56%29.74 "HgN/A
5:00 pm86 °FPartly sunny.29 mph47%29.74 "Hg25 mi
4:00 pm87 °FWarm.20 mph52%29.76 "HgN/A
3:00 pm84 °FWarm.18 mph59%29.77 "HgN/A
2:00 pm83 °FOvercast.20 mph62%29.78 "Hg25 mi
Weather by CustomWeather, © 2017

See weather overviewHow to use our weather pages